sat.trackr.live / text

‹ back to catalog

STARLINK-6120

NORAD 56131 · 2023-046AR

PAYLOAD ACTIVE UNKNOWN

§ Identity

Operator
Country
US
Launch date
2023-03-29
Launch site
AFETR
Launch vehicle
Mass (kg)
RCS (m²)

Purposes: comms

External: N2YO · Heavens-Above · Gunter

§ Orbital elements

Epoch: 2026-05-25T03:41:15.395424Z

Period
94.27 min
Inclination
43.0030°
Eccentricity
0.0001299
Mean motion
15.27571066 rev/d
Perigee alt
482.2 km
Apogee alt
484.0 km
Semi-major
6,861.2 km
B*
8.9282e-5
RAAN
75.2113°
Arg perigee
268.3903°
Mean anomaly
91.6800°
Rev number
17,389

§ Raw data

STARLINK-61201 56131U 23046AR  26145.15365041  .00002195  00000+0  89282-4 0  99932 56131  43.0030  75.2113 0001299 268.3903  91.6800 15.27571066173891

JSON: /api/v1/satellites/56131 · /tle

For live sub-satellite position, see the globe view (requires WebGL).

§ Visibility from observer

Set your observer location to see the next 7 days of passes ≥ 10°. The values pass through the URL so the page stays shareable.

No JS? Fill the form by hand. The geolocation button needs JavaScript.